Theta_e
301 299 297 300 301 300 297 295 295 299 295 294 295 295 297 301 300 300 300 302 300 297 299 298 296 294 292 293 292 293 293 293 293 293 291 291 291 291 290 291 290 289 288 288
298 295 301 298 297 296 295 295 296 298 293 292 294 292 296 298 299 300 301 302 302 298 297 296 294 292 291 291 292 292 292 292 292 292 291 291 290 290 290 290 289 288 287 287
296 298 296 296 295 293 294 294 296 293 292 291 289 291 292 295 296 297 299 300 301 298 296 294 292 291 291 290 291 291 291 292 292 291 290 288 288 288 287 288 288 288 287 286
296 298 296 295 295 295 293 296 294 291 290 289 290 286 294 295 294 295 300 300 298 297 296 295 292 290 290 291 292 291 291 290 290 290 289 288 287 287 288 287 287 286 286 285
295 292 292 293 295 295 294 291 291 289 289 286 290 285 291 288 290 295 299 301 299 298 296 294 291 290 290 291 291 291 290 289 289 289 289 288 287 287 287 285 284 285 285 285
295 294 294 296 289 291 290 290 289 286 287 283 290 287 290 290 292 295 298 299 297 296 296 295 293 291 290 291 290 290 289 288 288 288 288 287 286 285 284 283 283 283 283 283
293 293 292 292 292 291 290 291 288 287 284 285 286 284 288 293 294 296 299 300 296 296 294 292 290 289 289 289 289 289 288 287 287 287 287 286 285 284 282 282 282 281 281 282
289 288 289 293 295 295 289 292 289 283 284 286 282 282 290 294 297 297 294 295 293 293 293 291 290 290 289 288 289 288 288 287 286 286 285 284 283 282 282 281 280 280 280 280
288 290 289 289 291 294 288 287 292 289 278 281 288 292 293 292 292 292 292 293 294 294 293 291 290 290 288 288 288 288 288 287 285 284 284 282 282 280 280 280 279 279 279 279
294 288 289 286 288 287 288 291 285 287 282 281 286 288 289 291 291 292 291 292 295 294 293 291 289 289 289 289 289 289 288 286 285 284 283 281 280 279 279 278 278 278 278 278
293 291 287 287 286 288 284 286 285 285 286 283 282 286 291 291 293 292 294 296 297 296 294 292 290 289 289 289 288 288 287 286 283 282 281 279 278 278 277 277 277 277 277 276
294 291 287 290 286 287 290 290 289 285 284 284 285 286 294 294 294 294 295 294 295 295 295 294 291 289 288 287 287 286 286 283 282 281 279 278 277 276 276 276 276 276 275 275
291 287 285 287 284 284 285 286 288 290 289 285 283 285 295 295 293 292 293 295 293 293 294 291 289 288 287 287 286 285 284 282 280 278 277 276 276 275 275 275 274 274 274 274
295 288 287 284 287 287 285 286 286 287 284 285 285 288 292 294 294 296 297 294 293 295 294 292 290 287 287 286 285 284 282 281 278 276 276 275 275 274 274 273 273 273 273 272
291 286 288 290 292 291 289 288 286 284 286 284 287 288 292 294 295 296 297 297 296 296 292 292 290 287 286 285 284 282 281 278 276 275 275 275 274 273 272 272 272 272 272 271
289 285 287 285 289 288 286 288 289 288 288 287 287 286 293 294 295 294 295 295 294 294 296 292 288 286 284 283 282 279 278 276 275 274 274 273 271 271 271 271 270 270 270 270
286 285 284 281 287 286 281 285 287 288 290 290 285 290 295 294 294 294 295 295 293 294 295 295 288 285 283 282 280 278 276 274 273 273 272 271 270 269 269 268 268 268 268 268
287 285 286 282 284 274 287 292 291 289 290 292 291 292 294 294 295 296 297 296 295 295 295 292 288 286 283 282 279 277 274 273 273 272 269 269 268 267 267 266 266 267 268 267
292 288 283 279 280 284 285 288 287 286 287 292 290 292 293 295 293 294 296 297 296 297 297 296 289 285 281 279 276 273 272 272 271 270 269 268 267 266 265 264 265 266 267 266
290 290 284 282 277 276 287 291 293 290 281 293 292 291 291 292 287 292 298 296 296 294 287 283 282 279 276 274 273 272 271 270 269 269 268 267 266 264 263 264 264 266 265 265
282 283 280 281 280 284 291 290 291 280 285 293 294 293 292 290 293 296 293 287 285 282 279 278 276 275 273 272 272 271 270 270 270 268 266 265 265 263 263 263 264 263 263 265
284 281 280 281 278 277 294 292 286 293 296 296 296 294 291 292 293 293 290 281 279 278 275 275 274 272 271 272 272 270 269 269 266 265 265 264 262 263 264 260 262 262 263 263
284 289 286 286 286 293 296 294 296 297 296 296 295 296 293 292 292 292 286 280 277 276 274 274 272 270 270 272 272 270 267 266 265 263 261 261 262 262 262 261 262 264 264 264
287 293 287 288 291 293 294 296 297 298 295 296 297 296 292 293 292 289 284 279 276 275 273 272 270 269 268 270 270 267 265 264 262 261 262 262 262 262 262 264 264 264 265 265
286 286 285 284 286 291 294 295 296 295 294 292 293 291 293 293 291 290 285 281 277 275 273 271 270 269 267 268 265 265 263 261 261 262 263 262 262 262 262 263 263 264 266 266
284 282 281 281 288 288 290 294 295 293 293 294 293 293 294 289 291 290 287 283 277 273 271 270 270 267 266 265 263 262 261 262 263 262 262 262 262 262 261 262 263 263 264 266
Wind_Speed
2 7 17 17 17 13 7 8 16 15 4 6 17 20 25 23 20 25 24 21 18 21 18 19 20 19 18 18 18 17 16 14 10 8 6 4 4 4 3 4 5 5 4 5
4 16 18 1 6 9 9 13 20 13 2 7 14 22 23 23 26 25 26 24 18 17 16 18 20 21 21 20 19 18 17 15 12 8 5 3 3 3 3 4 5 4 5 5
16 12 3 9 8 10 11 17 15 11 5 7 11 18 8 7 14 17 23 22 15 16 17 17 20 23 21 21 21 19 17 16 13 10 6 4 2 3 5 6 3 3 5 6
11 5 10 7 11 13 14 10 11 8 5 13 3 23 13 11 11 12 21 11 12 15 14 16 20 22 23 21 19 18 17 15 12 12 8 9 7 7 3 2 4 5 6 7
6 6 8 10 10 12 5 3 5 3 8 6 12 13 9 2 6 18 19 12 13 13 15 17 19 19 21 18 18 17 16 15 13 13 11 8 9 5 3 3 7 6 7 9
7 1 5 3 3 0 8 3 2 2 4 12 18 17 3 5 8 9 11 10 9 11 13 12 13 16 17 18 18 17 19 17 15 15 14 13 10 8 6 6 5 6 6 6
4 11 4 4 5 3 5 4 7 8 7 15 3 9 17 12 11 13 17 7 6 8 10 12 16 17 18 21 20 17 20 19 17 16 14 12 10 9 8 7 6 7 7 7
6 13 14 12 17 6 11 8 7 14 15 23 8 14 13 11 15 16 7 7 3 7 8 11 15 16 18 19 21 22 21 20 17 16 14 12 11 7 7 7 6 7 8 9
9 15 3 2 2 5 9 10 2 5 3 11 12 23 8 7 12 8 14 11 15 12 11 12 14 16 17 20 22 23 22 19 18 16 13 12 10 10 8 8 8 8 10 8
3 11 4 3 1 0 5 6 5 4 7 19 26 32 18 11 15 9 10 15 15 10 10 11 13 16 17 18 20 21 21 20 18 16 13 11 11 9 7 7 10 10 9 9
4 7 4 5 13 16 7 7 5 3 6 10 21 18 4 6 6 11 14 15 9 12 15 14 14 15 16 16 18 20 20 21 18 15 13 12 10 8 7 7 7 7 9 9
9 4 13 23 3 3 9 16 19 11 11 12 13 38 4 7 5 7 8 5 8 9 11 13 14 14 16 17 18 20 19 19 18 15 13 11 9 8 7 6 6 7 9 9
11 6 7 13 6 2 9 9 12 17 16 33 13 35 10 10 3 6 9 10 8 11 14 12 13 17 18 17 18 19 19 19 16 15 13 11 10 8 6 6 6 7 9 9
11 5 14 22 21 2 7 13 20 24 20 21 27 31 42 30 24 23 21 13 14 16 15 15 15 15 16 16 19 19 19 18 17 15 13 12 10 8 6 5 6 6 7 9
7 14 15 21 28 23 24 18 19 30 29 27 30 26 36 31 23 27 22 17 21 20 15 18 17 15 16 17 18 18 18 17 17 15 13 11 9 7 5 6 5 6 7 8
5 19 18 27 30 30 32 22 32 30 33 25 24 30 30 36 31 29 38 23 27 25 22 19 17 16 17 19 19 18 18 17 16 14 12 10 8 7 5 5 5 6 7 8
10 9 10 21 24 20 15 36 32 40 35 29 31 35 33 34 32 32 35 23 23 25 25 18 17 18 17 19 19 20 18 16 15 13 12 10 9 7 5 4 5 6 7 8
13 20 11 10 6 15 21 20 29 36 35 32 32 37 37 35 32 30 22 21 24 23 23 12 13 13 14 16 17 16 16 15 14 13 12 10 8 6 5 4 4 5 5 7
24 20 11 9 16 11 7 19 23 23 32 27 34 34 37 37 9 31 18 22 25 23 19 11 10 12 15 17 18 18 16 15 14 13 12 11 9 7 5 3 4 4 5 7
25 24 18 11 12 19 20 30 17 7 7 32 27 27 28 21 10 21 25 13 16 11 4 8 11 13 16 17 19 19 16 14 13 13 12 10 8 6 4 3 4 4 5 7
9 14 25 24 24 13 10 7 5 15 22 29 30 27 23 22 20 23 5 3 1 4 7 11 14 13 14 17 19 17 16 15 13 12 11 9 7 8 5 3 3 4 5 7
22 13 13 15 17 25 19 22 26 29 26 22 19 12 9 13 17 16 10 7 10 13 15 14 13 12 12 16 15 17 13 12 13 13 11 10 7 5 6 4 2 4 4 6
23 26 24 22 15 14 15 29 29 30 25 22 14 15 11 13 15 13 9 9 9 11 12 12 15 17 14 14 14 16 15 15 13 12 10 9 8 6 5 5 3 1 3 4
11 17 16 24 23 16 12 12 18 19 21 22 20 17 8 15 11 10 7 9 11 13 13 13 16 15 15 12 13 15 16 13 12 12 11 8 7 7 4 4 3 1 2 4
10 4 6 7 13 16 17 14 13 16 14 14 15 7 16 15 16 15 11 13 13 14 13 14 16 17 18 15 15 15 16 15 13 11 10 9 6 5 5 3 2 1 1 5
20 23 19 21 25 22 21 20 17 14 20 17 15 19 19 13 19 12 15 13 15 18 18 17 18 19 18 15 15 14 14 13 13 12 9 7 5 4 3 3 3 2 3 8
Wind_Direction
127 226 238 244 228 269 269 260 262 269 198 240 252 255 266 276 271 257 264 259 243 230 224 209 202 196 192 192 190 192 189 190 186 190 190 203 208 197 233 223 251 253 302 315
179 238 251 255 222 226 234 261 264 281 233 218 271 270 270 264 263 266 270 265 251 237 226 208 198 197 196 192 194 195 195 190 195 192 186 185 180 212 249 250 254 266 310 312
229 258 101 195 206 204 228 235 255 263 322 229 289 269 237 257 255 269 260 259 254 227 219 203 203 201 197 196 194 195 196 195 195 187 169 161 191 249 239 231 235 266 289 301
242 255 222 203 229 204 240 229 244 259 288 277 1 288 280 257 249 255 272 245 229 217 213 203 202 202 200 197 193 195 193 192 191 185 189 202 214 226 218 288 286 298 300 291
228 186 195 212 231 179 247 119 179 205 249 313 248 268 275 133 246 259 258 264 226 210 198 201 202 203 200 193 191 192 190 190 186 189 198 202 218 240 269 267 272 280 286 272
258 135 223 212 75 106 133 119 154 157 252 250 253 229 257 196 209 251 263 244 199 196 193 201 196 197 197 194 192 188 190 191 188 189 196 204 209 213 227 239 250 253 266 280
200 221 171 179 147 127 199 180 279 255 226 264 150 237 265 278 234 232 252 261 176 178 183 187 189 193 193 196 195 190 192 193 189 191 194 197 203 212 234 243 245 267 269 262
220 252 183 182 219 214 185 221 203 265 280 288 110 250 274 225 248 251 278 272 219 216 209 204 197 195 196 195 198 194 193 193 188 189 190 190 195 205 219 233 244 253 258 264
197 253 98 237 139 181 158 198 237 285 113 282 250 259 228 187 247 244 252 247 246 235 215 208 207 202 198 197 199 197 191 193 190 187 184 187 189 201 213 227 242 252 258 275
260 263 109 110 169 73 227 137 142 194 264 261 276 282 275 231 240 212 239 236 243 230 217 211 208 208 205 204 200 200 194 187 184 183 186 187 189 198 210 226 241 255 274 284
194 209 199 151 201 190 166 206 228 312 233 260 273 272 114 160 168 200 223 230 238 226 220 213 212 213 212 204 200 194 192 185 179 180 179 184 188 193 210 231 250 267 280 278
207 203 231 235 129 301 254 233 216 223 221 235 259 273 87 78 152 187 211 247 240 237 225 210 208 207 205 207 200 196 190 185 176 175 177 184 184 195 212 234 256 267 275 281
170 213 239 254 214 200 215 210 228 240 256 249 231 259 196 279 259 222 250 242 238 237 217 215 213 210 209 204 199 195 190 182 168 167 175 178 192 198 211 234 255 270 278 287
171 164 219 237 250 97 194 224 219 222 233 254 239 260 277 271 276 281 272 252 236 237 230 223 222 217 212 203 196 190 188 177 166 169 175 183 187 191 203 235 254 269 284 293
170 229 243 253 263 271 280 272 245 236 239 242 257 262 264 280 276 275 278 278 275 266 232 227 227 212 206 200 191 187 183 171 165 170 175 181 173 184 199 233 258 276 286 287
192 241 240 244 254 259 259 255 255 258 253 253 259 267 268 270 282 281 273 268 271 271 258 232 222 206 200 195 187 179 174 168 164 169 171 163 173 179 203 229 262 281 276 280
200 211 206 240 234 244 246 238 248 257 262 258 257 254 270 271 266 264 273 278 265 263 263 259 210 204 199 190 179 180 167 152 159 163 163 168 171 184 197 225 248 269 284 293
230 216 217 247 217 226 236 229 230 241 251 255 253 257 260 259 265 275 272 268 266 266 271 249 208 204 187 173 170 158 153 152 158 159 162 170 174 181 194 215 261 276 288 297
221 231 235 224 217 247 174 225 220 220 244 243 242 250 252 259 282 275 263 255 257 266 270 258 199 174 161 160 156 150 150 152 159 168 164 168 169 169 187 214 248 281 293 305
221 223 227 217 229 229 224 238 239 87 249 248 240 248 256 272 260 265 275 237 246 250 178 152 150 147 150 155 153 152 154 153 164 166 161 156 154 157 171 213 272 303 298 292
187 211 222 231 241 243 220 216 110 191 235 242 246 244 248 246 233 247 267 191 63 124 150 140 148 161 154 155 154 153 152 163 155 146 142 147 155 154 160 194 284 288 296 304
220 200 209 229 244 247 224 225 220 238 242 242 256 245 208 232 247 239 226 169 178 170 158 164 149 147 155 154 153 143 153 140 138 140 144 148 163 168 151 154 240 271 298 311
234 223 229 214 228 227 212 224 228 244 254 257 252 250 213 240 236 235 214 195 195 177 166 162 151 148 160 162 151 144 137 147 143 141 143 152 163 162 159 156 167 273 307 327
327 304 273 266 252 273 249 249 252 255 247 257 264 273 197 233 233 232 193 181 182 182 177 161 149 151 151 155 139 132 142 146 143 142 150 157 167 156 164 154 149 193 316 345
271 330 300 294 288 294 291 282 281 288 280 277 278 258 253 250 247 231 214 196 190 178 169 166 160 158 155 151 137 143 147 152 149 148 153 156 161 156 139 111 119 201 319 308
273 275 277 276 284 286 281 286 290 298 289 284 285 287 272 242 249 225 231 206 178 175 167 168 167 156 153 150 145 148 150 155 146 150 152 155 146 134 107 106 139 95 336 342